Oakes, ND

5:28 AM CST on November 19, 2017 (GMT -0600)
Oakes

Weather History for K2D5 - February, 2013

Change the Weather History Date:

Saturday, February 16, 2013

  Actual Average (KP67) Record (KP67)
Temperature  
Mean Temperature 10 °F -  
Max Temperature 24 °F 27 °F 37 °F (1998)
Min Temperature -4 °F 11 °F -4 °F (1997)
Degree Days  
Heating Degree Days 55    
Moisture  
Dew Point 14 °F    
Average Humidity 96    
Maximum Humidity 100    
Minimum Humidity 85    
Precipitation  
Precipitation 0.00 in - - ()
Sea Level Pressure  
Sea Level Pressure 30.01 in    
Wind  
Wind Speed 8 mph (SSE)    
Max Wind Speed 14 mph    
Max Gust Speed -    
Averages and records for this station are not official NWS values.
T = Trace of Precipitation, MM = Missing Value Source: NWS Daily Summary

Daily Weather History Graph

Daily Weather History Graph

Search for Another Location

Airport or City:

Trip Planner

Search our weather history database for the weather conditions in past years. The results will help you decide how hot, cold, wet, or windy it might be!

Date:

Astronomy

Feb. 16, 2013 Rise Set
Actual Time 7:33 AM CST 6:00 PM CST
Civil Twilight 7:02 AM CST 6:30 PM CST
Nautical Twilight 6:27 AM CST 7:06 PM CST
Astronomical Twilight 5:52 AM CST 7:40 PM CST
Moon 10:22 AM CST (2/16) 12:24 AM CST (2/16)
Length of Visible Light 11h 28m
Length of Day
10h 27m
Waxing Crescent, 39% of the Moon is Illuminated
Feb 16
Waxing Crescent
Feb 17
First Quarter
Feb 25
Full
Mar 4
Last Quarter
Mar 11
New

Hourly Weather History & Observations

Time (CST) Temp. Windchill Dew Point Humidity Pressure Visibility Wind Dir Wind Speed Gust Speed Precip Events Conditions
12:15 AM -4.0 °F -19.0 °F -7.6 °F 85% 30.19 in - South 8.1 mph - N/A   Unknown
12:35 AM -2.2 °F -15.6 °F -5.8 °F 85% 30.18 in - SSE 6.9 mph - N/A   Unknown
12:55 AM -0.4 °F -13.4 °F -4.0 °F 85% 30.18 in - SSE 6.9 mph - N/A   Unknown
1:15 AM -0.4 °F -15.7 °F -2.2 °F 92% 30.17 in - South 9.2 mph - N/A   Unknown
1:35 AM -0.4 °F -15.7 °F -2.2 °F 92% 30.16 in - South 9.2 mph - N/A   Unknown
1:55 AM 1.4 °F -13.5 °F -0.4 °F 92% 30.15 in - South 9.2 mph - N/A   Unknown
2:15 AM 1.4 °F -13.5 °F -0.4 °F 92% 30.15 in - SSE 9.2 mph - N/A   Unknown
2:35 AM 1.4 °F -14.5 °F -0.4 °F 92% 30.14 in - SSE 10.4 mph - N/A   Unknown
2:55 AM -0.4 °F -15.7 °F -0.4 °F 100% 30.13 in - SSE 9.2 mph - N/A   Unknown
3:15 AM 1.4 °F -14.5 °F -0.4 °F 92% 30.11 in - SSE 10.4 mph - N/A   Unknown
3:35 AM 1.4 °F -14.5 °F -0.4 °F 92% 30.10 in - SSE 10.4 mph - N/A   Unknown
3:55 AM 3.2 °F -13.1 °F 1.4 °F 92% 30.08 in - SSE 11.5 mph - N/A   Unknown
4:15 AM 5.0 °F -10.8 °F 3.2 °F 92% 30.07 in - South 11.5 mph - N/A   Overcast
4:35 AM 5.0 °F -10.0 °F 3.2 °F 92% 30.07 in - South 10.4 mph - N/A   Unknown
5:15 AM 6.8 °F -6.9 °F 5.0 °F 92% 30.05 in - South 9.2 mph - N/A   Unknown
5:35 AM 6.8 °F -6.9 °F 5.0 °F 92% 30.04 in - SSE 9.2 mph - N/A   Unknown
5:55 AM 6.8 °F -6.9 °F 6.8 °F 100% 30.03 in - SSE 9.2 mph - N/A   Unknown
6:15 AM 6.8 °F -6.9 °F 6.8 °F 100% 30.03 in - SSE 9.2 mph - N/A   Unknown
6:35 AM 6.8 °F -6.9 °F 6.8 °F 100% 30.03 in - SSE 9.2 mph - N/A   Unknown
6:55 AM 8.6 °F -3.7 °F 6.8 °F 92% 30.02 in - SSE 8.1 mph - N/A   Unknown
7:15 AM 8.6 °F -2.6 °F 8.6 °F 100% 30.03 in - South 6.9 mph - N/A Snow Heavy Snow
7:35 AM 10.4 °F -0.4 °F 10.4 °F 100% 30.02 in - SSE 6.9 mph - N/A Snow Heavy Snow
7:55 AM 10.4 °F -1.5 °F 10.4 °F 100% 30.02 in - SE 8.1 mph - N/A Snow Heavy Snow
8:15 AM 10.4 °F 0.8 °F 10.4 °F 100% 30.02 in - SSE 5.8 mph - N/A   Unknown
8:35 AM 12.2 °F 4.3 °F 12.2 °F 100% 30.02 in - SSE 4.6 mph - N/A Snow Heavy Snow
8:55 AM 14.0 °F 5.1 °F 14.0 °F 100% 30.02 in - SSE 5.8 mph - N/A Snow Heavy Snow
9:15 AM 14.0 °F 3.9 °F 14.0 °F 100% 30.01 in - SSE 6.9 mph - N/A Snow Heavy Snow
9:35 AM 15.8 °F 5.1 °F 15.8 °F 100% 30.01 in - SSE 8.1 mph - N/A Snow Heavy Snow
12:15 PM 19.4 °F 8.6 °F 19.4 °F 100% 30.00 in - SSE 9.2 mph - N/A Snow Heavy Snow
12:35 PM 21.2 °F 10.9 °F 21.2 °F 100% 29.99 in - SSE 9.2 mph - N/A   Unknown
12:55 PM 21.2 °F 10.9 °F 21.2 °F 100% 29.98 in - SSE 9.2 mph - N/A   Unknown
1:15 PM 23.0 °F 13.1 °F 23.0 °F 100% 29.98 in - SSE 9.2 mph - N/A   Unknown
1:35 PM 23.0 °F 13.1 °F 23.0 °F 100% 29.98 in - SE 9.2 mph - N/A   Unknown
1:55 PM 23.0 °F 14.7 °F 23.0 °F 100% 29.98 in - SSE 6.9 mph - N/A   Unknown
2:15 PM 23.0 °F 15.8 °F 23.0 °F 100% 29.98 in - SSE 5.8 mph - N/A   Unknown
2:35 PM 23.0 °F 14.7 °F 23.0 °F 100% 29.97 in - SSE 6.9 mph - N/A   Unknown
2:55 PM 23.0 °F 15.8 °F 23.0 °F 100% 29.98 in - SSE 5.8 mph - N/A   Unknown
3:15 PM 24.8 °F 16.1 °F 24.8 °F 100% 29.97 in - South 8.1 mph - N/A   Unknown
3:35 PM 24.8 °F 17.9 °F 24.8 °F 100% 29.97 in - South 5.8 mph - N/A   Unknown
3:55 PM 24.8 °F 17.9 °F 24.8 °F 100% 29.97 in - South 5.8 mph - N/A   Unknown
4:15 PM 24.8 °F 17.9 °F 23.0 °F 93% 29.97 in - South 5.8 mph - N/A   Unknown
4:35 PM 24.8 °F 16.1 °F 23.0 °F 93% 29.96 in - South 8.1 mph - N/A   Unknown
4:55 PM 24.8 °F 16.9 °F 23.0 °F 93% 29.96 in - South 6.9 mph - N/A   Unknown
5:15 PM 24.8 °F 17.9 °F 23.0 °F 93% 29.97 in - South 5.8 mph - N/A   Unknown
5:35 PM 24.8 °F 17.9 °F 23.0 °F 93% 29.96 in - South 5.8 mph - N/A   Unknown
5:55 PM 24.8 °F 17.9 °F 23.0 °F 93% 29.97 in - South 5.8 mph - N/A   Unknown
6:15 PM 24.8 °F 19.1 °F 23.0 °F 93% 29.98 in - SE 4.6 mph - N/A   Unknown
6:35 PM 23.0 °F 15.8 °F 23.0 °F 100% 29.98 in - ESE 5.8 mph - N/A   Unknown
6:55 PM 21.2 °F 10.9 °F 21.2 °F 100% 29.97 in - ESE 9.2 mph - N/A   Unknown
7:15 PM 21.2 °F 10.9 °F 21.2 °F 100% 29.97 in - SE 9.2 mph - N/A   Unknown
7:35 PM 23.0 °F 14.7 °F 23.0 °F 100% 29.96 in - SSE 6.9 mph - N/A   Overcast
7:55 PM 24.8 °F 14.0 °F 23.0 °F 93% 29.96 in - SSE 11.5 mph - N/A   Unknown
8:15 PM 23.0 °F 10.6 °F 23.0 °F 100% 29.94 in - South 13.8 mph - N/A   Unknown
8:35 PM 23.0 °F 13.1 °F 23.0 °F 100% 29.95 in - SE 9.2 mph - N/A   Unknown
8:55 PM 23.0 °F 11.7 °F 23.0 °F 100% 29.94 in - SSE 11.5 mph - N/A   Unknown
9:15 PM 23.0 °F 12.4 °F 23.0 °F 100% 29.94 in - SSE 10.4 mph - N/A   Unknown
9:35 PM 21.2 °F 8.3 °F 21.2 °F 100% 29.94 in - SSE 13.8 mph - N/A   Unknown
9:55 PM 21.2 °F 8.9 °F 21.2 °F 100% 29.94 in - SSE 12.7 mph - N/A   Unknown
10:15 PM 21.2 °F 8.3 °F 21.2 °F 100% 29.93 in - SSE 13.8 mph - N/A   Unknown
10:35 PM 21.2 °F 10.9 °F 19.4 °F 93% 29.93 in - South 9.2 mph - N/A   Unknown
10:55 PM 21.2 °F 10.9 °F 19.4 °F 93% 29.92 in - South 9.2 mph - N/A   Overcast
11:15 PM 21.2 °F 10.9 °F 19.4 °F 93% 29.92 in - South 9.2 mph - N/A   Unknown
11:55 PM 21.2 °F 10.9 °F 21.2 °F 100% 29.90 in - South 9.2 mph - N/A   Unknown